TimeCST,TemperatureF,Dew PointF,Humidity,Sea Level PressureIn,VisibilityMPH,Wind Direction,Wind SpeedMPH,Gust SpeedMPH,PrecipitationIn,Events,Conditions,WindDirDegrees,DateUTC
12:52 AM,5.0,1.0,84,30.24,10.0,Calm,Calm,-,N/A,,Clear,0,2013-01-02 06:52:00
1:52 AM,7.0,1.0,77,30.25,10.0,Calm,Calm,-,N/A,,Clear,0,2013-01-02 07:52:00
2:52 AM,7.0,1.0,77,30.23,10.0,Calm,Calm,-,N/A,,Clear,0,2013-01-02 08:52:00
3:52 AM,5.0,-0.0,80,30.21,10.0,Calm,Calm,-,N/A,,Clear,0,2013-01-02 09:52:00
4:52 AM,8.1,1.9,76,30.20,10.0,Calm,Calm,-,N/A,,Clear,0,2013-01-02 10:52:00
5:52 AM,8.6,1.4,73,30.15,10.0,Calm,Calm,-,N/A,,Clear,0,2013-01-02 11:52:00
6:52 AM,9.0,1.9,73,30.20,10.0,ESE,3.5,-,N/A,,Clear,110,2013-01-02 12:52:00
7:52 AM,9.0,3.0,77,30.20,10.0,Calm,Calm,-,N/A,,Clear,0,2013-01-02 13:52:00
8:52 AM,12.2,5.0,73,30.14,10.0,Calm,Calm,-,N/A,,Clear,0,2013-01-02 14:52:00
9:52 AM,18.0,9.0,68,30.17,10.0,SSW,6.9,-,N/A,,Clear,200,2013-01-02 15:52:00
10:52 AM,21.9,12.0,66,30.15,10.0,SW,10.4,-,N/A,,Clear,220,2013-01-02 16:52:00
11:52 AM,26.1,15.1,63,30.13,10.0,SSW,6.9,-,N/A,,Clear,210,2013-01-02 17:52:00
12:52 PM,28.0,18.0,66,30.10,10.0,SW,8.1,-,N/A,,Clear,230,2013-01-02 18:52:00
1:52 PM,30.9,19.9,64,30.07,10.0,WSW,15.0,-,N/A,,Clear,240,2013-01-02 19:52:00
2:52 PM,32.0,21.0,64,30.08,10.0,SSW,9.2,-,N/A,,Clear,210,2013-01-02 20:52:00
3:52 PM,30.9,19.9,64,30.09,10.0,SSW,10.4,-,N/A,,Scattered Clouds,210,2013-01-02 21:52:00
4:52 PM,28.9,19.0,67,30.09,10.0,SSW,9.2,-,N/A,,Partly Cloudy,200,2013-01-02 22:52:00
5:52 PM,27.0,19.0,72,30.10,10.0,SSW,10.4,-,N/A,,Clear,200,2013-01-02 23:52:00
6:52 PM,27.0,19.9,75,30.12,10.0,SSW,10.4,-,N/A,,Overcast,210,2013-01-03 00:52:00
7:52 PM,27.0,19.9,75,30.12,10.0,SW,8.1,-,N/A,,Overcast,230,2013-01-03 01:52:00
8:52 PM,27.0,21.0,78,30.12,10.0,SW,9.2,-,N/A,,Overcast,220,2013-01-03 02:52:00
9:52 PM,28.0,21.9,78,30.12,10.0,WSW,8.1,-,N/A,,Overcast,250,2013-01-03 03:52:00
10:11 PM,28.4,21.2,74,30.10,10.0,West,8.1,-,N/A,,Overcast,270,2013-01-03 04:11:00
10:52 PM,28.0,21.9,78,30.14,10.0,West,9.2,-,N/A,,Overcast,270,2013-01-03 04:52:00
11:52 PM,28.0,21.9,78,30.14,9.0,WSW,10.4,-,N/A,,Overcast,240,2013-01-03 05:52:00